Yatton Keynell, United Kingdom

10:22 PM BST on April 20, 2019 (GMT +0100)
Yatton Keynell

Weather History for 03740 - April, 1997

Change the Weather History Date:

Sunday, April 20, 1997

  Actual Average Record
Temperature  
Mean Temperature 38 °F -  
Max Temperature 44 °F 58 °F - ()
Min Temperature 33 °F 42 °F - ()
Degree Days  
Heating Degree Days 26    
Moisture  
Dew Point 24 °F    
Average Humidity 56    
Maximum Humidity 75    
Minimum Humidity 42    
Precipitation  
Precipitation 0.00 in 0.07 in - ()
Sea Level Pressure  
Sea Level Pressure 30.16 in    
Wind  
Wind Speed 10 mph ()    
Max Wind Speed 17 mph    
Max Gust Speed -    
Visibility 6.2 miles    
Events      
T = Trace of Precipitation, MM = Missing Value Source: Averaged Metar Reports

Daily Weather History Graph

Daily Weather History Graph

Search for Another Location

Airport or City:

Astronomy

Apr. 20, 1997 Rise Set
Actual Time 6:01 AM BST 8:12 PM BST
Civil Twilight 5:25 AM BST 8:49 PM BST
Nautical Twilight 4:40 AM BST 9:34 PM BST
Astronomical Twilight 3:48 AM BST 10:27 PM BST
Moon 5:46 PM BST 5:14 AM BST
Length of Visible Light 15h 23m
Length of Day
14h 11m
Waxing Gibbous, 94% of the Moon is Illuminated
Apr 20
Waxing Gibbous
Apr 22
Full
Apr 30
Last Quarter
May 6
New
May 14
First Quarter

Hourly Weather History & Observations

Time (BST) Temp. Windchill Dew Point Humidity Pressure Visibility Wind Dir Wind Speed Gust Speed Precip Events Conditions
12:00 AM 33.8 °F 25.8 °F 24.8 °F 70% 30.15 in - NNE 10.4 mph - N/A   Clear
12:50 AM 35.6 °F 28.0 °F 24.8 °F 65% 30.15 in 6.2 mi NNE 10.4 mph - N/A   Scattered Clouds
1:00 AM 35.6 °F 28.0 °F 24.8 °F 65% 30.15 in 6.2 mi NNE 10.4 mph - N/A   Scattered Clouds
1:50 AM 35.6 °F 28.0 °F 26.6 °F 70% 30.15 in 6.2 mi NNE 10.4 mph - N/A   Scattered Clouds
2:00 AM 35.6 °F 28.0 °F 26.6 °F 70% 30.15 in 6.2 mi NNE 10.4 mph - N/A   Scattered Clouds
2:50 AM 35.6 °F 28.6 °F 26.6 °F 70% 30.15 in 6.2 mi NNE 9.2 mph - N/A   Mostly Cloudy
3:00 AM 35.6 °F 28.6 °F 26.6 °F 70% 30.15 in 6.2 mi NNE 9.2 mph - N/A   Mostly Cloudy
3:50 AM 33.8 °F 25.3 °F 24.8 °F 70% 30.15 in 6.2 mi NNE 11.5 mph - N/A   Mostly Cloudy
4:00 AM 33.8 °F 25.3 °F 24.8 °F 70% 30.15 in 6.2 mi NNE 11.5 mph - N/A   Mostly Cloudy
4:50 AM 33.8 °F 27.0 °F 26.6 °F 75% 30.15 in 6.2 mi NNE 8.1 mph - N/A   Partly Cloudy
5:00 AM 33.8 °F 27.0 °F 26.6 °F 75% 30.15 in 6.2 mi NNE 8.1 mph - N/A   Partly Cloudy
5:50 AM 33.8 °F 26.4 °F 24.8 °F 70% 30.15 in 6.2 mi NNE 9.2 mph - N/A   Partly Cloudy
6:00 AM 33.8 °F 26.4 °F 24.8 °F 70% 30.15 in 6.2 mi NNE 9.2 mph - N/A   Partly Cloudy
6:50 AM 33.8 °F 25.8 °F 26.6 °F 75% 30.15 in 6.2 mi NNE 10.4 mph - N/A   Scattered Clouds
7:00 AM 33.8 °F 25.8 °F 26.6 °F 75% 30.15 in 6.2 mi NNE 10.4 mph - N/A   Scattered Clouds
7:50 AM 37.4 °F 33.8 °F 28.4 °F 70% 30.18 in 6.2 mi ENE 4.6 mph - N/A   Partly Cloudy
8:00 AM 37.4 °F 33.8 °F 28.4 °F 70% 30.18 in 6.2 mi ENE 4.6 mph - N/A   Partly Cloudy
8:50 AM 41.0 °F 33.5 °F 28.4 °F 61% 30.18 in 6.2 mi NNE 13.8 mph - N/A   Mostly Cloudy
9:00 AM 41.0 °F 33.5 °F 28.4 °F 61% 30.18 in 6.2 mi NNE 13.8 mph - N/A   Mostly Cloudy
9:50 AM 42.8 °F 35.4 °F 26.6 °F 53% 30.18 in 6.2 mi NE 15.0 mph - N/A   Mostly Cloudy
10:00 AM 42.8 °F 35.4 °F 26.6 °F 53% 30.18 in 6.2 mi NE 15.0 mph - N/A   Mostly Cloudy
10:50 AM 41.0 °F 32.5 °F 21.2 °F 45% 30.18 in 6.2 mi ENE 17.3 mph - N/A   Mostly Cloudy
11:00 AM 41.0 °F 32.5 °F 21.2 °F 45% 30.18 in 6.2 mi ENE 17.3 mph - N/A   Mostly Cloudy
11:50 AM 42.8 °F 34.8 °F 21.2 °F 42% 30.18 in 6.2 mi NE 17.3 mph - N/A   Mostly Cloudy
12:00 PM 42.8 °F 34.8 °F 21.2 °F 42% 30.18 in 6.2 mi NE 17.3 mph - N/A   Mostly Cloudy
12:50 PM 42.8 °F 35.8 °F 23.0 °F 46% 30.18 in 6.2 mi NE 13.8 mph - N/A   Overcast
1:00 PM 42.8 °F 35.8 °F 23.0 °F 46% 30.18 in 6.2 mi NE 13.8 mph - N/A   Overcast
1:50 PM 42.8 °F 35.8 °F 24.8 °F 49% 30.18 in 6.2 mi NNE 13.8 mph - N/A   Overcast
2:00 PM 42.8 °F 35.8 °F 24.8 °F 49% 30.18 in 6.2 mi NNE 13.8 mph - N/A   Overcast
2:50 PM 44.6 °F 38.4 °F 23.0 °F 43% 30.18 in 6.2 mi NNE 12.7 mph - N/A   Overcast
3:00 PM 44.6 °F 38.4 °F 23.0 °F 43% 30.18 in 6.2 mi NNE 12.7 mph - N/A   Overcast
3:50 PM 44.6 °F 38.4 °F 23.0 °F 43% 30.15 in 6.2 mi ENE 12.7 mph - N/A   Mostly Cloudy
4:00 PM 44.6 °F 38.4 °F 23.0 °F 43% 30.15 in 6.2 mi ENE 12.7 mph - N/A   Mostly Cloudy
4:50 PM 44.6 °F 38.4 °F 24.8 °F 46% 30.15 in 6.2 mi NNE 12.7 mph - N/A   Mostly Cloudy
5:00 PM 44.6 °F 38.4 °F 24.8 °F 46% 30.15 in 6.2 mi NNE 12.7 mph - N/A   Mostly Cloudy
5:50 PM 44.6 °F 38.8 °F 23.0 °F 43% 30.15 in 6.2 mi NE 11.5 mph - N/A   Mostly Cloudy
6:00 PM 44.6 °F 38.8 °F 23.0 °F 43% 30.15 in 6.2 mi NE 11.5 mph - N/A   Mostly Cloudy
6:50 PM 42.8 °F 36.2 °F 23.0 °F 46% 30.15 in 6.2 mi NNE 12.7 mph - N/A   Mostly Cloudy
7:00 PM 42.8 °F 36.2 °F 23.0 °F 46% 30.15 in 6.2 mi NNE 12.7 mph - N/A   Mostly Cloudy
7:50 PM 42.8 °F 37.5 °F 23.0 °F 46% 30.15 in 6.2 mi NE 9.2 mph - N/A   Mostly Cloudy
8:00 PM 42.8 °F 37.5 °F 23.0 °F 46% 30.15 in 6.2 mi NE 9.2 mph - N/A   Mostly Cloudy
8:50 PM 41.0 °F 36.4 °F 21.2 °F 45% 30.15 in 6.2 mi ENE 6.9 mph - N/A   Scattered Clouds
9:00 PM 41.0 °F 36.4 °F 21.2 °F 45% 30.15 in 6.2 mi ENE 6.9 mph - N/A   Scattered Clouds
9:50 PM 37.4 °F 34.9 °F 23.0 °F 56% 30.15 in 6.2 mi NE 3.5 mph - N/A   Scattered Clouds
10:00 PM 37.4 °F 34.9 °F 23.0 °F 56% 30.15 in 6.2 mi NE 3.5 mph - N/A   Scattered Clouds
10:50 PM 37.4 °F 33.8 °F 23.0 °F 56% 30.15 in 6.2 mi ENE 4.6 mph - N/A   Scattered Clouds
11:00 PM 37.4 °F 33.8 °F 23.0 °F 56% 30.15 in 6.2 mi ENE 4.6 mph - N/A   Scattered Clouds
11:50 PM 37.4 °F 34.9 °F 23.0 °F 56% 30.15 in 6.2 mi NE 3.5 mph - N/A   Scattered Clouds